Regional Weather Roundup
Issued by NWS Cleveland, OH

Home | Current Version | Previous Version | Graphics & Text | Print | Product List | Glossary On
Versions: 1 2 3 4 5 6 7 8 9 10 11 12 13 14 15 16 17 18 19 20 21 22 23 24 25 26 27 28 29 30 31 32 33 34 35 36 37 38 39 40 41 42 43 44 45 46 47 48 49 50
631
ASUS41 KCLE 051010
RWRCLE
OHIO REGIONAL WEATHER ROUNDUP
NATIONAL WEATHER SERVICE WILMINGTON, OH
500 AM EST MON DEC 05 2016

NOTE: "FAIR" INDICATES FEW OR NO CLOUDS BELOW 12,000 FEET WITH NO
SIGNIFICANT WEATHER AND/OR OBSTRUCTIONS TO VISIBILITY.

OHZ001>008-015>018-024>027-034-035-043-044-051100-
   NORTHWEST OHIO

CITY           SKY/WX    TMP DP  RH WIND       PRES   REMARKS
DEFIANCE       CLOUDY    36  30  79 W9G17     30.00R
FINDLAY        CLOUDY    35  30  82 W13       30.00R WCI  26
TOLEDO EXPRESS CLOUDY    35  34  96 W10       29.97R WCI  27
TOLEDO EXEC    CLOUDY    36  33  89 SW12      29.98R
LIMA           CLOUDY    33  31  92 W13G25    30.01R WCI  24
$$

OHZ009>014-019>023-028>033-038-089-051100-
   NORTHEAST OHIO

CITY           SKY/WX    TMP DP  RH WIND       PRES   REMARKS
CLE-HOPKINS    CLOUDY    38  31  76 W13       29.98R
CLE-LAKEFRONT  CLOUDY    40  33  76 W26G33    29.94R
CUY CO. ARPT   NOT AVBL
LORAIN-ELYRIA  CLOUDY    35  29  78 W16       29.98R WCI  25
ASHTABULA      CLOUDY    38  35  89 W16       29.89R
AKRON-CANTON   CLOUDY    37  31  78 W16G25    29.94R
WOOSTER        CLOUDY    34  31  88 W18G24    29.98R WCI  23
MANSFIELD      CLOUDY    33  31  92 W13G20    29.98R WCI  24
YOUNGSTOWN     CLOUDY    38  34  85 W12       29.90R
$$

OHZ042-051>053-060>062-070>072-077>081-051100-
  SOUTHWEST OHIO

CITY           SKY/WX    TMP DP  RH WIND       PRES   REMARKS
CINC-COVINGTON CLOUDY    38  34  85 NW8       30.05R
CINC-LUNKEN    CLOUDY    40  35  83 NW8       30.08R
HAMILTON       CLOUDY    38  32  79 W8        30.07R
DAYTON         CLOUDY    34  30  85 W10       30.04R WCI  26
WRIGHT-PAT AFB CLOUDY    35  32  88 W7        30.04R WCI  30
DAYTON GENERAL CLOUDY    36  30  79 W8        30.04R
WILMINGTON     CLOUDY    37  33  85 W10       30.04R
$$

OHZ036-037-039>041-045>050-054>059-063>069-073>076-082>088-051100-
  CENTRAL AND SOUTHEAST OHIO

CITY           SKY/WX    TMP DP  RH WIND       PRES   REMARKS
COLUMBUS       CLOUDY    37  35  92 W18       30.02R
OSU AIRPORT    CLOUDY    36  32  85 W16       30.02R
BOLTON FIELD   CLOUDY    36  32  85 W10       30.04R
RICKENBACK AFB CLOUDY    38  33  83 W12       30.03R
NEWARK         CLOUDY    39  34  82 W13       30.00R
MARION         CLOUDY    34  30  85 W7        30.01R WCI  28
LANCASTER      CLOUDY    39  34  82 W10G20    30.02R
ZANESVILLE     CLOUDY    42  34  73 W14G23    30.00R
NEW PHILLY     CLOUDY    40  35  83 W13G18    29.98R
$$




USA.gov is the U.S. government's official web portal to all federal, state and local government web resources and services.